STARLINK-4581 (53576 NORAD) Tracking and Keplerian Element Data

This shows tracking and keplerian element data for the satellite.

Feedback or suggestion? Click here.




ElementValue
Catalog53576
NameSTARLINK-4581
Epoch Orbit1461
Epoch Day325.25001157
Epoch Year2022
RAAN60.7321
Inclination53.219
Eccentricity0.000177
Argument of Perigee45.2149
Mean Anonmoly196.0732
Mean Motion15.08810862
Decay Rate0.00036241
L11 53576U 22101BB 22325.25001157 .00036241 00000+0 22853-2 0 9994
L22 53576 53.2190 60.7321 0001770 45.2149 196.0732 15.08810862 14616



Live tracking and technical data element details for STARLINK-4581 (NORAD 53576). STARLINK-4581 can be tracked NOW for your location showing map with azimuth and elevation plus other details from your city location.







IsCatalogInMostPopularTable: catalog: 53576, numindb: 4
Update: records affected: 1



GetName: 53576 STARLINK-4581

Hit Count: updated at: Tue, 29 Nov 2022 01:00:55 GMT